x

8638595 - South Craney Island, Va (cryv2) Weather Station

12:30am - Tue 24th Jan 2017 All times are EST. -5 hours from GMT.

  • Wind
    13mph, 20mph gusts
  • Air Temp 44°f
  • Sea Pressure 993.4mb
  • 8638595 - South Craney Island, Va
  • 8638595 - South Craney Island, Va

More Historic Weather Station data

Upgrade to MSW Pro to gain access to the past 30 days of data for over 8000 Wavebouys and Weather Stations around the globe.

Join Pro

Comparision Forecast

View Surf forecast
   
Tue 01/24 12:30am 13 20 mph 993.4mb 44f
12:24am 14 21 mph 993.4mb 44f
12:18am 13 20 mph 993.3mb 45f
12:12am 13 18 mph 993.1mb 45f
12:06am 16 20 mph 993mb 45f
12:00am 14 20 mph 993.1mb 45f
Mon 01/23 11:54pm 14 22 mph 993.2mb 45f
11:48pm 14 20 mph 993.2mb 45f
11:42pm 14 21 mph 993.3mb 46f
11:36pm 10 20 mph 993.2mb 46f
11:30pm 14 21 mph 993.4mb 46f
11:24pm 13 21 mph 993.4mb 46f
11:18pm 14 18 mph 993.3mb 46f
11:12pm 11 18 mph 993.3mb 46f
11:06pm 10 18 mph 993.2mb 46f
11:00pm 13 17 mph 993.2mb 46f
10:54pm 13 17 mph 993.1mb 46f
10:48pm 11 18 mph 993mb 46f
10:42pm 10 16 mph 993mb 46f
10:36pm 11 16 mph 993mb 46f
10:30pm 10 17 mph 992.8mb 46f
10:24pm 11 18 mph 992.7mb 46f
10:18pm 13 16 mph 992.7mb 46f
10:12pm 10 16 mph 992.6mb 46f
10:06pm 10 17 mph 992.5mb 46f
10:00pm 13 17 mph 992.3mb 46f
9:54pm 13 16 mph 992.3mb 46f
9:48pm 11 17 mph 992.1mb 47f
9:42pm 11 17 mph 992.1mb 47f
9:36pm 11 17 mph 992mb 47f
9:30pm 14 20 mph 991.8mb 47f
9:24pm 13 18 mph 991.8mb 47f
9:18pm 14 18 mph 991.9mb 47f
9:12pm 13 17 mph 992mb 47f
9:06pm 14 17 mph 992mb 47f
9:00pm 10 17 mph 991.8mb 47f
8:54pm 11 20 mph 991.7mb 47f
8:48pm 15 18 mph 991.7mb 47f
8:42pm 15 22 mph 991.5mb 47f
8:36pm 16 22 mph 991.5mb 47f
8:30pm 16 21 mph 991.4mb 47f
8:24pm 16 21 mph 991.3mb 47f
8:18pm 16 21 mph 991.1mb 47f
8:12pm 18 22 mph 991.1mb 47f
8:06pm 18 23 mph 991.1mb 47f
8:00pm 18 22 mph 991.2mb 47f
7:54pm 17 24 mph 991mb 47f
7:48pm 18 23 mph 990.8mb 47f
7:42pm 18 23 mph 990.8mb 48f
7:36pm 18 22 mph 990.9mb 48f
7:30pm 17 22 mph 990.9mb 48f
7:24pm 17 22 mph 990.7mb 48f
7:18pm 18 23 mph 990.7mb 48f
7:12pm 21 24 mph 990.8mb 48f
7:06pm 17 21 mph 990.9mb 49f
7:00pm 16 20 mph 990.9mb 49f
6:54pm 16 18 mph 990.9mb 49f
6:48pm 15 17 mph 990.8mb 49f
6:42pm 14 17 mph 990.8mb 49f
6:36pm 11 18 mph 990.8mb 49f
6:30pm 13 16 mph 990.8mb 49f
6:24pm 15 17 mph 990.7mb 49f
6:18pm 16 22 mph 990.6mb 49f
6:12pm 17 20 mph 990.7mb 49f
6:06pm 15 18 mph 990.5mb 49f
6:00pm 14 16 mph 990.4mb 49f
5:54pm 13 15 mph 990.3mb 50f
5:48pm 11 16 mph 990.3mb 50f
5:42pm 14 17 mph 990.4mb 50f
5:36pm 14 16 mph 990.6mb 50f
5:30pm 11 13 mph 990.7mb 50f
5:24pm 11 14 mph 990.6mb 51f
5:18pm 13 15 mph 990.5mb 51f
5:12pm 9 13 mph 990.5mb 51f
5:06pm 9 13 mph 990.4mb 51f
5:00pm 8 10 mph 990.3mb 51f
4:54pm 9 11 mph 990.3mb 51f
4:48pm 10 13 mph 990.1mb 51f
4:42pm 11 14 mph 990.1mb 52f
4:36pm 11 14 mph 990.1mb 52f
4:30pm 11 14 mph 990.2mb 51f
4:24pm 13 14 mph 990.2mb 51f
4:18pm 13 14 mph 990.3mb 52f
4:12pm 9 11 mph 990.3mb 51f
4:06pm 8 11 mph 990.3mb 51f
4:00pm 8 13 mph 990.2mb 52f
3:54pm 8 11 mph 990.2mb 53f
3:48pm 8 11 mph 989.9mb 54f
3:42pm 8 10 mph 989.9mb 55f
3:36pm 8 10 mph 989.9mb 55f
3:30pm 8 10 mph 989.9mb 55f
3:24pm 9 11 mph 989.8mb 56f
3:18pm 5 6 mph 989.8mb 56f
3:12pm 5 6 mph 989.6mb 56f
3:06pm 6
mph
989.6mb 56f
3:00pm 5 6 mph 989.7mb 54f
2:54pm 5 6 mph 989.8mb 54f
2:48pm 6 9 mph 989.5mb 55f
2:42pm 8 9 mph 989.5mb 55f
2:36pm 8 9 mph 989.6mb 56f
2:30pm 7 9 mph 989.6mb 58f
2:24pm 6 13 mph 989.6mb 58f
2:18pm 8 10 mph 989.6mb 58f
2:12pm 6 9 mph 989.5mb 59f
2:06pm 7 10 mph 989.4mb 58f
2:00pm 7 10 mph 989.3mb 55f
1:54pm 5 9 mph 989.2mb 58f
1:48pm 8 10 mph 989.1mb 59f
1:42pm 6 8 mph 988.9mb 58f
1:36pm 6 7 mph 988.9mb 59f
1:30pm 3 6 mph 989mb 58f
1:24pm 3 6 mph 988.7mb 63f
1:18pm 9 14 mph 988.6mb 62f
1:12pm 10 16 mph 988.7mb 60f
1:06pm 6 9 mph 989mb 64f
1:00pm 6 11 mph 989.2mb 60f
12:54pm 6 9 mph 989.2mb 57f
12:48pm 7 9 mph 989.3mb 55f
12:42pm 7 9 mph 989.3mb 56f
12:36pm 7 9 mph 989.3mb 56f
12:30pm 3 14 mph 989.3mb 64f
12:24pm 10 14 mph 989.4mb 64f
12:18pm 8 14 mph 989.4mb 62f
12:12pm 11 15 mph 989.5mb 61f
12:06pm 9 13 mph 989.5mb 62f
12:00pm 6 7 mph 989.7mb 61f
11:54am 5 7 mph 989.9mb 62f
11:48am 6 8 mph 990mb 61f
11:42am 5 8 mph 990.1mb 61f
11:36am 6 9 mph 990.1mb 60f
11:30am 8 10 mph 990.2mb 59f
11:24am 8 10 mph 990.3mb 56f
11:18am 9 13 mph 990.4mb 58f
11:12am 11 15 mph 990.3mb 60f
11:06am 11 16 mph 990.2mb 60f
11:00am 13 16 mph 990.4mb 58f
10:54am 7 11 mph 990.7mb 58f
10:48am 10 15 mph 990.7mb 59f
10:42am 13 15 mph 990.6mb 59f
10:36am 11 15 mph 990.6mb 59f
10:30am 16 22 mph 990.5mb 59f
10:24am 16 18 mph 990.7mb 58f
10:18am 15 20 mph 990.8mb 58f
10:12am 15 18 mph 990.7mb 58f
10:06am 15 20 mph 990.6mb 58f
10:00am 17 21 mph 990.3mb 58f
9:54am 14 18 mph 990.2mb 58f
9:48am 15 20 mph 990.5mb 57f
9:42am 14 18 mph 990.6mb 58f
9:36am 13 17 mph 990.7mb 57f
9:30am 9 14 mph 990.6mb 57f
9:24am 14 22 mph 990.7mb 58f
9:18am 17 23 mph 990.7mb 58f
9:12am 13 22 mph 990.5mb 58f
9:06am 17 22 mph 990.8mb 58f
9:00am 17 21 mph 990.8mb 58f
8:54am 15 21 mph 991mb 58f
8:48am 14 20 mph 991mb 58f
8:42am 15 22 mph 990.8mb 58f
8:36am 18 24 mph 990.6mb 58f
8:30am 21 28 mph 990.6mb 59f
8:24am 21 26 mph 990.6mb 58f
8:18am 18 30 mph 990.1mb 59f
8:12am 20 29 mph 990.4mb 59f
8:06am 18 24 mph 990.2mb 58f
8:00am 16 20 mph 990.2mb 56f
7:54am 15 22 mph 990.3mb 56f
7:48am 17 24 mph 990.5mb 56f
7:42am 18 22 mph 990.8mb 56f
7:36am 17 21 mph 990.9mb 55f
7:30am 18 23 mph 991mb 55f
7:24am 18 24 mph 991mb 55f
7:18am 17 24 mph 990.9mb 56f
7:12am 20 24 mph 991.3mb 55f
7:06am 18 22 mph 991.4mb 55f
7:00am 16 20 mph 991.7mb 54f
6:54am 15 18 mph 992mb 53f
6:48am 13 16 mph 992.1mb 50f
6:42am 2 8 mph 991.9mb 49f
6:36am 8 9 mph 992.4mb 49f
6:30am 2 6 mph 992.8mb 49f
6:24am 6 11 mph 992.2mb 49f
6:18am 11 16 mph 991.7mb 49f
6:12am 15 16 mph 992.4mb 50f
6:06am 11 15 mph 992.5mb 51f
6:00am 11 16 mph 992.8mb 52f
5:54am 11 15 mph 993mb 51f
5:48am 9 13 mph 993.7mb 51f
5:42am 10 18 mph 993.1mb 51f
5:36am 13 20 mph 992.8mb 51f
5:30am 11 15 mph 993.1mb 50f
5:24am 13 14 mph 994mb 50f
5:18am 9 11 mph 994.5mb 50f
5:12am 8 14 mph 994.1mb 50f
5:06am 13 16 mph 994.1mb 50f
5:00am 14 17 mph 994mb 50f
4:54am 14 16 mph 994.2mb 50f
4:48am 13 16 mph 994.4mb 50f
4:42am 14 18 mph 994.6mb 50f
4:36am 16 20 mph 994.8mb 49f
4:30am 16 21 mph 995.1mb 49f
4:24am 14 16 mph 995.7mb 49f
4:18am 10 15 mph 994.9mb 49f
4:12am 14 16 mph 994.6mb 49f
4:06am 14 17 mph 994.1mb 49f
4:00am 14
mph
995mb 48f
3:54am 10 11 mph 995.5mb 49f
3:48am 9 17 mph 994.6mb 49f
3:42am 16 18 mph 995.2mb 48f
3:36am 13 14 mph 996.5mb 49f
3:30am 10 15 mph 996.6mb 49f
3:24am 13 18 mph 995.9mb 49f
3:18am 17 23 mph 995.3mb 48f
3:12am 14 21 mph 995.8mb 49f
3:06am 13 15 mph 995.8mb 48f
3:00am 11 13 mph 995.8mb 48f
2:54am 13 14 mph 996.1mb 48f
2:48am 13 14 mph 996.2mb 48f
2:42am 13 15 mph 996.1mb 48f
2:36am 11 16 mph 996.1mb 48f
2:30am 14 16 mph 996.3mb 48f
2:24am 14 17 mph 996.5mb 48f
2:18am 13 17 mph 996.8mb 48f
2:12am 9 10 mph 997.1mb 48f
2:06am 9 10 mph 997.2mb 47f
2:00am 6 10 mph 997mb 47f
1:54am 9 10 mph 997.2mb 47f
1:48am 9 10 mph 997.4mb 47f
1:42am 9 10 mph 998mb 47f
1:36am 7 9 mph 998.2mb 47f
1:30am 8
mph
998.2mb 47f
1:24am 8 9 mph 998.4mb 47f
1:18am 7 8 mph 998.6mb 48f
1:12am 5 6 mph 999mb 47f
1:06am 5 6 mph 998.9mb 47f
1:00am 5 7 mph 998.9mb 47f
12:54am 7 9 mph 998.7mb 47f
12:48am 9 11 mph 998.8mb -
12:42am 10 11 mph 998.9mb -
12:36am 8 9 mph 999.2mb -
12:30am 6 8 mph 999.2mb 47f
12:24am 7 8 mph 999.2mb 47f
12:18am 7 8 mph 999.9mb 48f
12:12am 7 9 mph 999.7mb 47f
12:06am 9 10 mph 999.9mb 47f
12:00am 7 8 mph 999.9mb 47f
Sun 01/22 11:54pm 7 9 mph 1000.2mb 47f
11:48pm 6 7 mph 1000.6mb 47f
11:42pm 5 6 mph 1000.6mb 47f
11:36pm 3 5 mph 1000.4mb 47f
11:30pm 5 6 mph 1000.4mb 47f
11:24pm 5 6 mph 1000.3mb 47f
11:18pm 5 6 mph 1000.2mb 48f
11:12pm 5 6 mph 1000mb 48f
11:06pm 6 9 mph 999.8mb 47f
11:00pm 8 9 mph 999.8mb 48f
10:54pm 8 10 mph 1000.1mb 48f
10:48pm 7 8 mph 1000.2mb 48f
10:42pm 8 9 mph 1000.2mb 48f
10:36pm 7 8 mph 1000.3mb 48f
10:30pm 6
mph
1000.4mb 48f
10:24pm 5 6 mph 1000.2mb 48f
10:18pm 6 7 mph 1000.4mb 48f
10:12pm 5 6 mph 1000.6mb 48f
10:06pm 3 7 mph 1000.6mb 49f
10:00pm 7 10 mph 1000.4mb 49f
9:54pm 9 10 mph 1000.5mb 49f
9:48pm 8 10 mph 1000.4mb 49f
9:42pm 9 14 mph 1000mb 49f
9:36pm 11 15 mph 999.6mb 49f
9:30pm 13 14 mph 999.8mb 49f
9:24pm 10 11 mph 1000.2mb 47f
9:18pm 7 8 mph 1000.4mb 48f
9:12pm 7 8 mph 1000.3mb 48f
9:06pm 7 8 mph 1000.6mb 48f
9:00pm 7 8 mph - 48f
8:54pm 7 9 mph - 48f
8:48pm 6 8 mph 1001mb 48f
8:42pm 6 7 mph 1001.1mb 48f
8:36pm 6 7 mph 1001.1mb 49f
8:30pm 6
mph
1001.3mb -
8:24pm 3
mph
1001.4mb -
8:18pm 2 3 mph 1001.3mb 49f
8:12pm 3 5 mph 1001.1mb 48f
8:06pm 3 5 mph 1001mb 48f
8:00pm 5 6 mph 1001.3mb 48f
7:54pm 3 5 mph 1001.5mb 48f
7:48pm 3 5 mph 1001.7mb 48f
7:42pm 5 6 mph 1001.7mb 47f
7:36pm 6
mph
1001.9mb 47f
7:30pm 5
mph
1002.1mb 48f
7:24pm 3 5 mph 1002mb 48f
7:18pm 5 6 mph 1002mb 48f
7:12pm 6
mph
1002.1mb 48f
7:06pm 6
mph
1002.3mb 48f
7:00pm 5 6 mph 1002.4mb 49f
6:54pm 5 6 mph 1002.6mb 49f
6:48pm 3 6 mph 1002.7mb -
6:42pm 3 6 mph 1002.7mb -
6:36pm 3 5 mph 1002.6mb -
6:30pm 3 6 mph 1002.6mb 49f
6:24pm 5 7 mph 1002.6mb 49f
6:18pm 2
mph
1002.5mb 49f
6:12pm 1 2 mph 1002.6mb 49f
6:06pm 1 2 mph 1002.5mb 49f
6:00pm  -  2 mph 1002.5mb 49f
5:54pm 1 3 mph 1002.3mb 49f
5:48pm 3 5 mph - 49f
5:42pm 2 3 mph - 49f
5:36pm 3 5 mph - 49f
5:30pm 5 6 mph 1001.8mb 49f
5:24pm 6 7 mph 1001.7mb 49f
5:18pm 6 8 mph 1001.5mb 49f
5:12pm 6 8 mph 1001.3mb 49f
5:06pm 7 10 mph 1001.3mb 49f
5:00pm 8 10 mph 1001.2mb 49f
4:54pm 8 10 mph 1001mb 49f
4:48pm 9 11 mph 1001.1mb 49f
4:42pm 8 9 mph 1001.3mb 48f
4:36pm 8 9 mph 1001.4mb 48f
4:30pm 8 9 mph 1001.5mb 49f
4:18pm 8 10 mph 1001.6mb 49f
4:12pm 8 10 mph 1001.6mb 50f
4:06pm 8 9 mph 1001.4mb 50f
4:00pm 7 9 mph 1001.3mb 50f
3:54pm 7 9 mph 1001.2mb 50f
3:48pm 8 10 mph 1001.4mb 51f
3:42pm 8 9 mph 1001.4mb 51f
3:36pm 6 8 mph 1001.3mb 50f
3:30pm 3 6 mph 1001.1mb 50f
3:24pm 5 7 mph 1000.8mb 49f
3:18pm 7 8 mph 1000.8mb 48f
3:12pm 8 9 mph 1000.8mb 48f
3:06pm 8
mph
1001.1mb 49f
3:00pm 5 6 mph 1001.6mb 49f
2:54pm 3 5 mph 1001.5mb 49f
2:48pm 2 3 mph 1001.7mb 49f
2:42pm 2 3 mph 1001.4mb 50f
2:36pm 3
mph
1001.7mb 50f
2:30pm 1 5 mph 1001.6mb 50f
2:24pm 2 5 mph 1001.5mb 50f
2:18pm 5 7 mph 1001mb 49f
2:12pm 6 7 mph 1000.5mb 49f
2:06pm 7 9 mph 1000.1mb 49f
2:00pm 7 8 mph 1000.1mb 49f
1:54pm 6 14 mph 999.3mb 50f
1:48pm 13 16 mph 999mb 48f
1:42pm 7 8 mph 999.2mb 49f
1:36pm 6 7 mph 999.4mb 49f
1:30pm 5
mph
1000.5mb 49f
1:24pm 2 3 mph 1000.3mb 48f
1:18pm  -  7 mph 999.8mb 47f
1:12pm 8 10 mph 999.8mb 47f
1:06pm 7 8 mph 1000.5mb 49f
1:00pm 6 7 mph 1001.2mb 49f
12:54pm 6 8 mph 1001.4mb 49f
12:48pm 7 8 mph 1001.4mb 49f
12:42pm 6 8 mph 1001.8mb 49f
12:36pm 6 9 mph 1001.8mb 49f
12:30pm 6 8 mph 1001.7mb 49f
12:24pm 7 10 mph 1001.7mb 49f
12:18pm 8 10 mph 1001.7mb 49f
12:12pm 8 11 mph 1001.9mb 49f
12:06pm 7 11 mph 1002.2mb 49f
12:00pm 8 11 mph 1002.5mb 50f
11:54am 7 10 mph 1002.8mb 49f
11:48am 7 10 mph 1002.8mb 49f
11:42am 8 11 mph 1003.2mb 49f
11:36am 7 9 mph 1003.3mb 49f
11:30am 6 11 mph 1003.2mb 49f
11:24am 7 10 mph 1003.2mb 49f
11:18am 6 9 mph 1003.3mb 49f
11:12am 8 11 mph 1003.4mb 49f
11:06am 8 11 mph 1003.5mb 49f
11:00am 8 11 mph 1003.9mb 49f
10:54am 8 13 mph 1004.3mb 49f
10:48am 9 11 mph 1004.3mb 49f
10:42am 8 13 mph 1004.5mb 49f
10:36am 9 14 mph 1004.5mb 49f
10:30am 9 11 mph 1004.5mb 49f
10:24am 8 10 mph 1004.6mb 49f
10:18am 8 10 mph 1004.6mb 49f
10:12am 6 9 mph 1004.6mb 49f
10:06am 7 9 mph 1004.5mb 49f
10:00am 7 10 mph 1004.3mb 50f
9:54am 7 9 mph 1004.2mb 50f
9:48am 5 6 mph 1004mb 50f
9:42am 5 8 mph 1004mb 49f
9:36am 6 9 mph 1004.1mb 49f
9:30am 5 7 mph 1004mb 49f
9:24am 6 13 mph 1003.9mb 49f
9:18am 8 13 mph 1003.6mb 49f
9:12am 9 13 mph 1003.3mb 49f
9:06am 11 15 mph 1003mb 49f
9:00am 11 15 mph 1003.3mb 50f
8:54am 8 10 mph 1003.7mb 50f
8:48am 5 9 mph - 50f
8:42am 6 9 mph - 50f
8:36am 8 10 mph - 49f
8:30am 7 11 mph 1003.9mb 49f
8:24am 5 7 mph 1004mb 49f
8:18am 6 9 mph 1004mb 49f
8:12am 6 9 mph 1004mb 50f
8:06am 6 7 mph 1003.8mb 50f
8:00am 5 6 mph 1003.8mb 50f
7:54am 5 7 mph 1003.6mb 49f
7:48am 3 7 mph 1003.5mb 50f
7:42am 6 9 mph 1003.7mb 50f
7:36am 6 9 mph 1003.6mb 49f
7:30am 6 7 mph 1003.2mb 49f
7:24am 5 7 mph 1003mb 49f
7:18am 5 6 mph 1002.8mb 49f
7:12am 2 6 mph 1003mb 49f
7:06am 2 5 mph 1003mb 49f
7:00am 5
mph
1003mb 49f
6:54am 3 6 mph 1002.9mb 49f
6:48am 3 6 mph 1003.2mb 49f
6:42am 3 5 mph 1003.5mb 49f
6:36am 5
mph
1003.3mb 49f
6:30am 3 5 mph 1003mb 49f
6:24am 3 6 mph 1002.9mb 49f
6:18am 3 5 mph 1002.6mb 49f
6:12am  -  3 mph 1002.4mb 49f
6:06am 2 5 mph 1002.2mb 49f
6:00am 3 5 mph 1002.3mb 48f
5:54am 3 5 mph 1002.4mb 48f
5:48am 3
mph
1002.4mb 48f
5:42am 2 3 mph 1002.4mb 48f
5:36am 3 5 mph 1002.5mb 48f
5:30am 5 6 mph 1002.4mb 48f
5:24am 6 7 mph 1002.4mb 47f
5:18am 7 9 mph 1002.4mb 47f
5:12am 7 10 mph 1002.6mb 47f
5:06am 8 10 mph 1002.7mb 47f
5:00am 8 10 mph 1002.8mb 47f
4:54am 9 10 mph 1003mb 47f
4:48am 8 10 mph 1003mb 47f
4:42am 7 11 mph 1003mb 47f
4:36am 8 10 mph 1003mb 47f
4:30am 8 9 mph 1003mb 48f
4:24am 6 7 mph 1003mb 48f
4:18am 6 8 mph 1003.2mb 48f
4:12am 6 7 mph 1003.1mb 48f
4:06am 6 7 mph 1003mb 48f
4:00am 6 7 mph 1003mb 48f
3:54am 5 7 mph 1003mb 48f
3:48am 6 7 mph 1003mb 48f
3:42am 6
mph
1003.1mb 48f
3:36am 6 7 mph 1003.3mb 47f
3:30am 6 7 mph 1003.4mb 47f
3:24am 6 9 mph 1003.3mb 47f
3:18am 7 10 mph 1003.3mb 47f
3:12am 8 10 mph 1003.4mb 47f
3:06am 8 11 mph 1003.4mb 48f
3:00am 8 10 mph 1003.4mb 48f
2:54am 7 9 mph 1003.3mb 48f
2:48am 8 9 mph 1003.5mb 47f
2:42am 9 10 mph 1003.4mb 47f
2:36am 10 13 mph 1003.4mb 47f
2:30am 10 11 mph 1003.7mb 48f
2:24am 6 11 mph 1003.6mb 47f
2:18am 9 11 mph 1003.6mb 48f
2:12am 6 9 mph 1002.9mb 48f
2:06am 9 11 mph 1002.6mb 48f
2:00am 10 13 mph 1002.6mb 48f
1:54am 10 11 mph 1003.1mb 48f
1:48am 10 13 mph 1003.1mb -
1:42am 11 14 mph 1003.1mb -
1:36am 9 11 mph 1003.1mb -
1:30am 9 10 mph 1003.5mb 49f
1:24am 8 10 mph 1003.5mb 49f
1:18am 8 11 mph 1003.7mb 49f
1:12am 9 10 mph 1003.8mb 49f
1:06am 9 13 mph 1003.7mb 49f
1:00am 9 10 mph 1004mb 49f
12:54am 8 10 mph 1003.8mb 49f
12:48am 8 9 mph 1003.9mb 49f
12:42am 8 9 mph 1004mb 48f
12:36am 8 9 mph 1004.2mb 48f
12:30am 7 8 mph 1004.4mb 47f
12:24am 6 8 mph 1004.5mb 47f
12:18am 7 8 mph 1004.7mb 47f
12:12am 8 9 mph 1004.8mb 47f
12:06am 9 10 mph 1004.9mb 47f
12:00am 10 11 mph 1005mb 47f
Sat 01/21 11:54pm 11
mph
1005.4mb 47f
11:48pm 9 11 mph 1005.4mb 47f
11:42pm 10 13 mph 1005.4mb 47f
11:36pm 8 14 mph 1005.3mb 47f
11:30pm 10 13 mph 1005.7mb 49f
11:24pm 7 10 mph 1005.5mb 48f
11:18pm 5 9 mph 1005.4mb 48f
11:12pm 7 8 mph 1005.7mb 49f
11:06pm 3 6 mph 1005.7mb 49f
11:00pm 1 8 mph 1005.4mb 49f
10:54pm 7 9 mph 1005.7mb 49f
10:48pm 7 8 mph 1005.9mb 49f
10:42pm 5 6 mph 1006mb 49f
10:36pm 6 7 mph 1006.1mb 49f
10:30pm 5 6 mph 1006.2mb 49f
10:24pm 5 7 mph 1006.2mb 49f
10:18pm 6
mph
1006.3mb 49f
10:12pm 6
mph
1006.5mb 50f
10:06pm 5 7 mph 1006.6mb 50f
10:00pm 5 6 mph 1006.9mb 49f
9:54pm 3
mph
1007.1mb 49f
9:48pm 3 6 mph 1006.9mb 50f
9:42pm 6 8 mph 1006.9mb 49f
9:36pm 6 8 mph 1006.9mb 50f
9:30pm 8 9 mph 1007mb 50f
9:24pm 8 9 mph 1007.3mb 50f
9:18pm 7 8 mph 1007.6mb 50f
9:12pm 7 8 mph 1007.8mb 50f
9:06pm 6
mph
1007.7mb 50f
9:00pm 6
mph
1007.8mb 50f
8:54pm 5 6 mph 1007.8mb 50f
8:48pm 5 7 mph 1007.8mb 50f
8:42pm 6 7 mph 1007.8mb 51f
8:36pm 7
mph
1008mb 50f
8:30pm 6 7 mph 1008.2mb 50f
8:24pm 3 7 mph 1008.3mb 50f
8:18pm 6 7 mph 1008.4mb 50f
8:12pm 6 7 mph 1008.4mb 50f
8:06pm 5 6 mph 1008.5mb 51f
8:00pm 6 7 mph 1008.4mb 50f
7:54pm 6 7 mph 1008.5mb 50f
7:48pm 5 6 mph 1008.5mb 51f
7:42pm 6 7 mph 1008.5mb 51f
7:36pm 6 7 mph 1008.7mb 50f
7:30pm 5 6 mph 1008.7mb 49f
7:24pm 5
mph
1008.7mb 50f
7:18pm 3 5 mph 1008.7mb 50f
7:12pm 5 6 mph 1008.6mb 50f
7:06pm 5 6 mph 1008.6mb 51f
7:00pm 6
mph
1008.6mb 51f
6:54pm 6 7 mph 1008.7mb 50f
6:48pm 6 7 mph 1008.9mb -
6:42pm 6 7 mph 1008.9mb -
6:36pm 6 7 mph 1009mb -
6:30pm 6 7 mph 1009mb 50f
6:24pm 6 7 mph 1009.1mb 51f
6:18pm 2 3 mph 1009.2mb 52f
6:12pm 3
mph
1009.2mb 53f
6:06pm 3 5 mph 1009.2mb 52f
6:00pm 5
mph
1009.3mb 52f
5:54pm 3
mph
1009.3mb 52f
5:48pm 3 5 mph 1009.4mb -
5:42pm 3 5 mph 1009.3mb -
5:36pm 3 5 mph 1009.5mb -
5:30pm 3
mph
1009.5mb 52f
5:24pm 3
mph
1009.6mb 52f
5:18pm 3 5 mph 1009.7mb 52f
5:12pm 5
mph
1009.7mb 50f
5:06pm 3 5 mph 1009.9mb 52f
5:00pm 5
mph
1009.9mb 52f
4:54pm 5
mph
1009.8mb 52f
4:48pm 5
mph
1009.9mb 52f
4:42pm 5 6 mph 1009.8mb 51f
4:36pm 5
mph
1009.9mb 51f
4:30pm 5
mph
1010.1mb 52f
4:24pm 5 6 mph 1010.1mb 52f
4:18pm 5 6 mph 1010mb 52f
4:12pm 5 6 mph 1009.9mb 51f
4:06pm 6
mph
1010mb 52f
4:00pm 6
mph
1009.9mb 52f
3:54pm 2 3 mph 1010mb 52f
3:48pm 2 3 mph 1010mb 52f
3:42pm 2 3 mph 1010.1mb 52f
3:36pm 3
mph
1010.2mb 52f
3:30pm 2 5 mph 1010.1mb 51f
3:24pm 3 5 mph 1010mb 52f
3:18pm 1 3 mph 1010mb 51f
3:12pm 2 3 mph 1010mb 51f
3:06pm 3 5 mph 1010.2mb 52f
3:00pm 5 6 mph 1010.2mb 52f
2:54pm 5
mph
1010.2mb 51f
2:48pm 3 5 mph 1010.2mb 51f
2:42pm 3 5 mph 1010.3mb 51f
2:36pm 3 5 mph 1010.4mb 51f
2:30pm 3 5 mph 1010.5mb 51f
2:24pm 5
mph
1010.5mb 50f
2:18pm 3 5 mph 1010.5mb 51f
2:12pm 3 5 mph 1010.5mb 51f
2:06pm 3
mph
1010.5mb 51f
2:00pm 3
mph
1010.6mb 51f
1:54pm 5
mph
1010.6mb 50f
1:48pm 3 6 mph - 50f
1:42pm 3
mph
- 51f
1:36pm 2 3 mph - 50f
1:30pm 3
mph
1010.8mb 50f
1:24pm 3 5 mph 1010.9mb 49f
1:18pm 5
mph
1011mb 49f
1:12pm 2 3 mph 1011mb 49f
1:06pm 3 5 mph 1011.2mb 49f
1:00pm 3 5 mph 1011.4mb 49f
12:54pm 6 7 mph 1011.4mb 49f
12:48pm 5 7 mph 1011.3mb 49f
12:42pm 3 6 mph 1011.2mb 49f
12:36pm 5 6 mph 1011.2mb 49f
12:30pm 2 5 mph 1011.4mb 49f
12:24pm 3 6 mph 1011.6mb 49f
12:18pm 6 8 mph 1011.6mb 49f
12:12pm 5 6 mph 1011.8mb 48f
12:06pm 5 6 mph 1011.9mb 49f
12:00pm 5
mph
1012mb 48f
11:54am 2 3 mph 1012.2mb 48f
11:48am 2 3 mph 1012.3mb 48f
11:42am 3
mph
1012.4mb 47f
11:36am 3
mph
1012.6mb 48f
11:30am 3 5 mph 1012.9mb 48f
11:24am 3 5 mph 1013.1mb 48f
11:18am 3 5 mph 1013.1mb 48f
11:12am 3 5 mph 1013.1mb 48f
11:06am 2 3 mph 1013.3mb 48f
11:00am 2 3 mph 1013.5mb 48f
10:54am 2 5 mph 1013.5mb 48f
10:48am 2 5 mph 1013.8mb 48f
10:42am 5 6 mph 1014mb 48f
10:36am 5 6 mph 1014mb 47f
10:30am 3 6 mph 1013.9mb 47f
10:24am 5 6 mph 1013.9mb 47f
10:18am 6 7 mph 1013.9mb 47f
10:12am 3 6 mph 1013.9mb 47f
10:06am 5 6 mph 1013.9mb 47f
10:00am 5 6 mph 1014mb 47f
9:54am 6 7 mph 1014mb 47f
9:48am 5 7 mph 1014mb 47f
9:42am 6 9 mph 1013.9mb 47f
9:36am 6 8 mph 1013.7mb 47f
9:30am 6 8 mph 1013.6mb 47f
9:24am 5 8 mph 1013.4mb 47f
9:18am 6 7 mph 1013.6mb 47f
9:12am 5 8 mph 1013.5mb 47f
9:06am 6 7 mph 1013.4mb 47f
9:00am 6 8 mph 1013.3mb 46f
8:54am 6 7 mph 1013.4mb 47f
8:48am 7 8 mph 1013.4mb 46f
8:42am 7 8 mph 1013.5mb 46f
8:36am 6 7 mph 1013.7mb 47f
8:30am 7 8 mph 1013.7mb 47f
8:24am 6 8 mph 1013.5mb 46f
8:18am 7 8 mph 1013.7mb 47f
8:12am 8
mph
1013.4mb 47f
8:06am 5 7 mph 1013.4mb 47f
8:00am 7 8 mph 1013.3mb 47f
7:54am 8 9 mph 1013.3mb 47f
7:48am 6 7 mph 1013.3mb 47f
7:42am 7 8 mph 1013.2mb 47f
7:36am 6
mph
1013.2mb 47f
7:30am 6 8 mph 1013.3mb 47f
7:24am 6 7 mph 1013.2mb 47f
7:18am 6
mph
1013.2mb 47f
7:06am 6
mph
1013.5mb 47f
7:00am 2 3 mph 1013.6mb 46f
6:54am 3 5 mph 1013.7mb 47f
6:48am 3 5 mph 1013.8mb 47f
6:42am 2 3 mph 1013.7mb 47f
6:36am 2 3 mph 1013.6mb 47f
6:30am 3
mph
1013.6mb 47f
6:24am 5 6 mph 1013.4mb 47f
6:18am 5 6 mph 1013.3mb 47f
6:12am 3 5 mph 1013.2mb 47f
6:06am 3
mph
1013.1mb 47f
6:00am 2
mph
1013mb 47f
5:54am 2
mph
1013.2mb 47f
5:48am 1
mph
1013.2mb 47f
5:42am 2 5 mph 1013.1mb 47f
5:36am 2 6 mph 1012.9mb 47f
5:30am 3 6 mph 1012.6mb 47f
5:24am 5 6 mph 1012.8mb 47f
5:18am 2
mph
1013.1mb 47f
5:12am 2
mph
1013.1mb 47f
5:06am  -  1 mph 1013.1mb 47f
5:00am  -  1 mph 1013.1mb 47f
4:54am  -  mph 1013.2mb 47f
4:48am  -  mph 1013.2mb 47f
4:42am  -  mph 1013.2mb 47f
4:36am  -  mph 1013.2mb 47f
4:30am  -  mph 1013.2mb 46f
4:24am  -  mph 1013.1mb 46f
4:18am  -  mph 1013.1mb 46f
4:12am  -  2 mph 1013.3mb 46f
4:06am  -  1 mph 1013.4mb 46f
4:00am  -  1 mph 1013.3mb 46f
3:54am 1 2 mph 1013.2mb 46f
3:48am 2 6 mph 1013.1mb 46f
3:42am 5
mph
1013.2mb 47f
3:36am 5
mph
1013.3mb 46f
3:30am 5
mph
1013.3mb 46f
3:24am 3
mph
1013.3mb 46f
3:18am 3
mph
1013.4mb 47f
3:12am 2
mph
1013.5mb 46f
3:06am 2 3 mph 1013.6mb 47f
3:00am 1 2 mph 1013.6mb 47f
2:54am  -  2 mph 1013.8mb 47f
2:48am 2
mph
1013.7mb 47f
2:42am 2 3 mph 1013.5mb 47f
2:36am 1 2 mph 1013.4mb 47f
2:30am 1 2 mph 1013.4mb 47f
2:24am 1 3 mph 1013.5mb 47f
2:18am 2 3 mph 1013.3mb 47f
2:12am 2 3 mph 1013.3mb 47f
2:06am 1 2 mph 1013.3mb 47f
2:00am 2
mph
1013.4mb 47f
1:54am 1 2 mph 1013.5mb 47f
1:48am 2 3 mph 1013.5mb 47f
1:42am 3 5 mph 1013.5mb 47f
1:36am 3 5 mph 1013.5mb 47f
1:30am 2 5 mph 1013.3mb 47f
1:24am 3
mph
1013.1mb 47f
1:18am 2
mph
1013.1mb 47f
1:12am 2
mph
1013mb 47f
1:06am 1 2 mph 1012.9mb 47f
1:00am 2
mph
1013mb 47f
12:54am 1
mph
1013mb 47f
12:48am  -  1 mph 1013mb -
12:42am  -  1 mph 1013.1mb -
12:36am  -  1 mph 1013.1mb -
12:30am  -  1 mph 1013.2mb 47f
12:24am  -  2 mph 1013.3mb 47f
12:18am 1 2 mph 1013.2mb 47f
12:12am 1 2 mph 1013.3mb 47f
12:06am 1 2 mph 1013.3mb 47f
12:00am 1 2 mph 1013.3mb 47f
Fri 01/20 11:54pm 2
mph
1013.2mb 47f
11:48pm 1 3 mph 1013.2mb 47f
11:42pm 2 3 mph 1013.3mb 47f
11:36pm 2 3 mph 1013.3mb 47f
11:30pm 3
mph
1013.2mb 47f
11:24pm 2 3 mph 1013.2mb 46f
11:18pm 2 5 mph 1013.2mb 46f
11:12pm 3 5 mph 1013.2mb 46f
11:06pm 2 5 mph 1013.2mb 47f
11:00pm 3 5 mph 1013.3mb 47f
10:54pm 3 5 mph 1013.3mb 46f
10:48pm 3
mph
1013.3mb 47f
10:42pm 3
mph
1013.3mb 47f
10:36pm 3
mph
1013.3mb 46f
10:30pm 2 3 mph 1013.1mb 46f
10:24pm 2 3 mph 1013.1mb 46f
10:18pm 2 3 mph 1013mb 46f
10:12pm 3 5 mph 1013mb 46f
10:06pm 3
mph
1012.9mb 46f
10:00pm 2 5 mph 1012.9mb 46f
9:54pm 5
mph
1012.8mb 46f
9:48pm 5 6 mph 1012.9mb 46f
9:42pm 3 5 mph 1013mb 45f
9:36pm 5 6 mph 1012.9mb 46f
9:30pm 6
mph
1013mb 47f
9:24pm 2 3 mph 1013mb 47f
9:18pm 2 3 mph 1013mb 47f
9:12pm 2 3 mph 1013mb 47f
9:06pm 2 5 mph 1013mb 47f
9:00pm 5
mph
1013.1mb 47f
8:54pm 3
mph
1013.1mb 46f
8:48pm 2
mph
1013.1mb 46f
8:42pm 1 2 mph 1013mb 46f
8:36pm 1 2 mph 1012.9mb 46f
8:30pm  -  1 mph 1012.9mb 46f
8:24pm 1
mph
1012.7mb 46f
8:18pm  -  2 mph 1012.6mb 46f
8:12pm  -  1 mph 1012.6mb 46f
8:06pm  -  2 mph 1012.5mb 46f
8:00pm 1 2 mph 1012.4mb 46f
7:54pm 2
mph
1012.5mb 46f
7:48pm  -  1 mph - 46f
7:42pm  -  mph - 46f
7:36pm  -  1 mph - 46f
7:30pm  -  2 mph 1012.4mb 46f
7:24pm 2 3 mph 1012.3mb 46f
7:18pm 3
mph
1012.4mb 46f
7:12pm 3
mph
1012.5mb 46f
7:06pm 1 2 mph 1012.4mb 46f
7:00pm  -  2 mph 1012.4mb 47f
6:54pm  -  2 mph 1012.6mb 47f
6:48pm 2
mph
1012.7mb 47f
6:42pm 1 2 mph 1012.7mb 47f
6:36pm  -  1 mph 1012.5mb 47f
6:30pm  -  2 mph 1012.4mb 47f
6:24pm 1 3 mph 1012.3mb 47f
6:18pm 3 6 mph 1012.2mb 47f
6:12pm 3 6 mph 1012.1mb 47f
6:06pm 2 5 mph 1012mb 46f
6:00pm 5 6 mph 1012mb 46f
5:54pm 6
mph
1011.9mb 46f
5:48pm 6 7 mph 1011.9mb 46f
5:42pm 7
mph
1011.9mb 46f
5:36pm 6
mph
1012mb 46f
5:30pm 6
mph
1011.8mb 46f
5:24pm 5 6 mph 1011.6mb 46f
5:18pm 5 6 mph 1011.5mb 47f
5:12pm 3 6 mph 1011.5mb 47f
5:06pm 6 7 mph 1011.4mb 47f
5:00pm 6 7 mph 1011.3mb 47f
4:54pm 7 9 mph 1011.4mb 47f
4:48pm 8 9 mph 1011.5mb 47f
4:42pm 6 7 mph 1011.5mb 47f
4:36pm 6
mph
1011.4mb 47f
4:30pm 5 6 mph 1011.4mb 47f
4:24pm 5 7 mph 1011.5mb 47f
4:18pm 5 8 mph 1011.5mb 47f
4:12pm 6 7 mph 1011.4mb 48f
4:06pm 5 7 mph 1011.4mb 48f
4:00pm 6 8 mph 1011.3mb 48f
3:54pm 8 10 mph 1011.3mb 47f
3:48pm 6 8 mph 1011.2mb 48f
3:42pm 8 9 mph 1011.2mb 48f
3:36pm 8 9 mph 1011.2mb 48f
3:30pm 8
mph
1011.4mb 48f
3:24pm 6 8 mph 1011.6mb 48f
3:18pm 7 8 mph 1011.6mb 48f
3:12pm 7 9 mph 1011.5mb 48f
3:06pm 5 8 mph 1011.4mb 48f
3:00pm 6 7 mph 1011.4mb 48f
2:54pm 6 8 mph 1011.4mb 48f
2:48pm 6 7 mph 1011.6mb 48f
2:42pm 6 8 mph 1011.6mb 48f
2:36pm 7 8 mph 1011.7mb 48f
2:30pm 6
mph
1011.6mb 48f
2:24pm 6 7 mph 1011.7mb 48f
2:18pm 5 6 mph 1011.8mb 48f
2:12pm 5 6 mph 1011.8mb 48f
2:06pm 6
mph
1011.8mb 48f
2:00pm 5
mph
1011.8mb 48f
1:54pm 3 5 mph 1011.8mb 49f
1:48pm 5 6 mph 1011.9mb 48f
1:42pm 3 5 mph 1012.1mb 48f
1:36pm 2 3 mph 1012.1mb 48f
1:30pm 3 5 mph 1012.2mb 48f
1:24pm 2 3 mph 1012mb 48f
1:18pm 3
mph
1012mb 48f
1:12pm 2 5 mph 1012.1mb 49f
1:06pm 3
mph
1012.2mb 49f
1:00pm 5
mph
1012.4mb 48f
12:54pm 3 5 mph 1012.7mb 47f
12:48pm 5 6 mph 1012.9mb 47f
12:42pm 3 5 mph 1013mb 48f
12:36pm 3 5 mph 1013.1mb 50f
12:30pm 2 3 mph 1013.2mb 50f
12:24pm  -  2 mph 1013.2mb 50f
12:18pm 1 2 mph 1013.5mb 50f
12:12pm  -  2 mph 1013.9mb 50f
12:06pm 2 5 mph 1014.1mb 51f
12:00pm 3 5 mph 1013.7mb 50f
11:54am  -  1 mph 1013.5mb 50f
11:48am  -  2 mph 1013.6mb 50f
11:42am 1 2 mph 1013.7mb 50f
11:36am 2 3 mph 1013.6mb 50f
11:30am 2 5 mph 1013.7mb 50f
11:24am 2 3 mph 1013.6mb 50f
11:18am 2 6 mph 1013.8mb 50f
11:12am 5 7 mph 1013.9mb 50f
11:06am 6 9 mph 1013.8mb 50f
11:00am 8 10 mph 1013.8mb 50f
10:54am 9 10 mph 1013.9mb 50f
10:48am 8 10 mph 1014.1mb 50f
10:42am 8 10 mph 1014.3mb 50f
10:36am 8 10 mph 1014.4mb 49f
10:30am 8 9 mph 1014.5mb 49f
10:24am 8 11 mph 1014.4mb 49f
10:18am 8 10 mph 1014.6mb 49f
10:12am 9 11 mph 1014.7mb 48f
10:06am 8 10 mph 1014.7mb 48f
10:00am 9 10 mph 1014.8mb 48f
9:54am 7 9 mph 1014.7mb 48f
9:48am 7 9 mph 1014.5mb 47f
9:42am 7
mph
1014.9mb 47f
9:36am 6 7 mph 1014.8mb 47f
9:30am 7 9 mph 1014.8mb 47f
9:24am 6 7 mph 1014.9mb 47f
9:18am 6 7 mph 1015.1mb 46f
9:12am 6 7 mph 1015.1mb 46f
9:06am 7 8 mph 1015.3mb 46f
9:00am 6 8 mph 1015.2mb 46f
8:54am 8
mph
1015.2mb 46f
8:48am 8 10 mph 1015.1mb 46f
8:42am 9 11 mph 1014.8mb 46f
8:36am 6 7 mph 1014.7mb 46f
8:30am 7 10 mph 1014.8mb 45f
8:24am 5 7 mph 1014.8mb 45f
8:18am 5 6 mph 1015.1mb 45f
8:12am 6 7 mph 1015mb 45f
8:06am 7 9 mph 1014.9mb 45f
8:00am 7 8 mph 1014.9mb 45f
7:54am 7 8 mph 1014.8mb 45f
7:48am 5 6 mph 1015mb 45f
7:42am 3 5 mph 1014.6mb 45f
7:36am 5 8 mph 1014.6mb 45f
7:30am 5 6 mph 1014.9mb 44f
7:24am 6
mph
1014.9mb 44f
7:18am 6 7 mph 1014.9mb 44f
7:12am 6 7 mph 1014.9mb 44f
7:06am 6 7 mph 1015.1mb 44f
7:00am 6 7 mph 1015mb 44f
6:54am 6
mph
1015.1mb 44f
6:48am 6
mph
1015.1mb 44f
6:42am 3 5 mph 1014.9mb 44f
6:36am 2 3 mph 1014.9mb 44f
6:30am 3 6 mph 1014.9mb 44f
6:24am 5 6 mph 1014.9mb 44f
6:18am 3 6 mph 1015.4mb 44f
6:12am 5 6 mph 1015.7mb 44f